TimeEST,TemperatureF,Dew PointF,Humidity,Sea Level PressureIn,VisibilityMPH,Wind Direction,Wind SpeedMPH,Gust SpeedMPH,PrecipitationIn,Events,Conditions,WindDirDegrees,DateUTC
12:14 AM,29.3,22.8,77,30.16,10.0,SSW,8.1,-,N/A,,Overcast,200,2012-11-28 05:14:00
12:54 AM,29.1,22.6,77,30.15,10.0,SSW,6.9,-,N/A,,Mostly Cloudy,210,2012-11-28 05:54:00
1:15 AM,28.9,22.5,77,30.15,10.0,SSW,5.8,-,N/A,,Overcast,210,2012-11-28 06:15:00
1:34 AM,29.1,22.6,77,30.14,10.0,SSW,6.9,-,N/A,,Mostly Cloudy,210,2012-11-28 06:34:00
1:54 AM,29.5,22.8,76,30.14,10.0,WSW,5.8,-,N/A,,Overcast,240,2012-11-28 06:54:00
2:14 AM,29.7,22.8,76,30.14,10.0,SSW,5.8,-,N/A,,Overcast,210,2012-11-28 07:14:00
2:34 AM,30.0,23.0,75,30.14,10.0,SW,5.8,-,N/A,,Overcast,220,2012-11-28 07:34:00
2:54 AM,30.0,23.2,76,30.14,10.0,SW,4.6,-,N/A,,Overcast,220,2012-11-28 07:54:00
3:14 AM,30.0,23.4,76,30.14,10.0,SSW,6.9,-,N/A,,Overcast,210,2012-11-28 08:14:00
3:34 AM,29.8,23.4,77,30.14,10.0,WSW,5.8,-,N/A,,Mostly Cloudy,240,2012-11-28 08:34:00
3:54 AM,30.0,23.4,76,30.14,10.0,WSW,5.8,-,N/A,,Mostly Cloudy,240,2012-11-28 08:54:00
4:14 AM,30.2,23.5,76,30.14,10.0,WSW,5.8,-,N/A,,Overcast,240,2012-11-28 09:14:00
4:34 AM,30.0,23.4,76,30.14,10.0,West,6.9,-,N/A,,Overcast,260,2012-11-28 09:34:00
4:54 AM,29.3,23.0,77,30.14,10.0,West,6.9,-,N/A,,Scattered Clouds,270,2012-11-28 09:54:00
5:14 AM,29.3,23.5,79,30.15,10.0,West,5.8,-,N/A,,Scattered Clouds,260,2012-11-28 10:14:00
5:35 AM,29.5,23.9,80,30.16,10.0,West,5.8,-,N/A,,Mostly Cloudy,260,2012-11-28 10:35:00
5:54 AM,28.9,23.9,81,30.16,10.0,WSW,4.6,-,N/A,,Scattered Clouds,250,2012-11-28 10:54:00
6:14 AM,28.6,24.1,83,30.17,10.0,West,3.5,-,N/A,,Scattered Clouds,270,2012-11-28 11:14:00
6:34 AM,29.7,25.2,83,30.17,10.0,West,4.6,-,N/A,,Overcast,260,2012-11-28 11:34:00
7:14 AM,30.2,25.7,83,30.18,10.0,West,5.8,-,N/A,,Overcast,260,2012-11-28 12:14:00
7:34 AM,30.2,25.7,83,30.19,10.0,West,5.8,-,N/A,,Overcast,260,2012-11-28 12:34:00
7:54 AM,30.0,25.5,83,30.19,10.0,WSW,4.6,-,N/A,,Overcast,250,2012-11-28 12:54:00
8:14 AM,29.1,25.2,85,30.20,10.0,SW,4.6,-,N/A,,Overcast,230,2012-11-28 13:14:00
8:31 AM,30.2,25.9,84,30.20,10.0,SW,4.6,-,N/A,,Overcast,230,2012-11-28 13:31:00
8:56 AM,30.2,26.6,86,30.21,10.0,WSW,5.8,-,N/A,,Overcast,250,2012-11-28 13:56:00
9:14 AM,31.1,26.6,83,30.21,10.0,WSW,5.8,-,N/A,,Overcast,240,2012-11-28 14:14:00
9:34 AM,31.6,26.6,82,30.22,10.0,WSW,8.1,-,N/A,,Overcast,240,2012-11-28 14:34:00
9:54 AM,32.4,26.6,79,30.22,10.0,West,5.8,-,N/A,,Overcast,260,2012-11-28 14:54:00
10:15 AM,33.1,26.6,77,30.23,10.0,WSW,9.2,-,N/A,,Overcast,250,2012-11-28 15:15:00
10:34 AM,34.3,27.0,74,30.24,10.0,WSW,10.4,16.1,N/A,,Mostly Cloudy,240,2012-11-28 15:34:00
10:54 AM,35.6,25.9,68,30.24,10.0,West,10.4,16.1,N/A,,Clear,260,2012-11-28 15:54:00
11:15 AM,36.5,24.3,61,30.24,10.0,West,9.2,18.4,N/A,,Scattered Clouds,280,2012-11-28 16:15:00
11:34 AM,35.6,23.9,62,30.23,10.0,West,12.7,18.4,N/A,,Mostly Cloudy,260,2012-11-28 16:34:00
11:54 AM,35.6,23.9,62,30.23,10.0,West,11.5,19.6,N/A,,Overcast,270,2012-11-28 16:54:00
12:15 PM,35.8,23.5,61,30.23,10.0,West,13.8,19.6,N/A,,Overcast,280,2012-11-28 17:15:00
12:34 PM,36.3,23.4,59,30.23,10.0,West,11.5,-,N/A,,Overcast,270,2012-11-28 17:34:00
12:55 PM,35.8,23.0,60,30.22,10.0,WNW,6.9,17.3,N/A,,Overcast,290,2012-11-28 17:55:00
1:14 PM,35.6,23.0,60,30.22,10.0,WNW,6.9,-,N/A,,Mostly Cloudy,300,2012-11-28 18:14:00
1:34 PM,35.4,22.8,60,30.22,10.0,WNW,4.6,-,N/A,,Scattered Clouds,290,2012-11-28 18:34:00
1:55 PM,36.1,22.8,58,30.22,10.0,WNW,6.9,-,N/A,,Scattered Clouds,300,2012-11-28 18:55:00
2:14 PM,37.6,22.8,55,30.22,10.0,WNW,9.2,-,N/A,,Scattered Clouds,290,2012-11-28 19:14:00
2:34 PM,38.5,20.8,49,30.22,10.0,West,11.5,21.9,N/A,,Overcast,270,2012-11-28 19:34:00
2:55 PM,39.0,21.2,49,30.22,10.0,West,12.7,20.7,N/A,,Overcast,260,2012-11-28 19:55:00
3:14 PM,38.5,20.8,49,30.22,10.0,West,15.0,19.6,N/A,,Mostly Cloudy,280,2012-11-28 20:14:00
3:34 PM,37.4,18.9,47,30.22,10.0,West,10.4,18.4,N/A,,Scattered Clouds,270,2012-11-28 20:34:00
3:55 PM,36.5,19.2,50,30.23,10.0,West,10.4,-,N/A,,Clear,270,2012-11-28 20:55:00
4:14 PM,35.2,19.2,52,30.23,10.0,West,9.2,18.4,N/A,,Clear,270,2012-11-28 21:14:00
4:34 PM,34.9,19.0,52,30.22,10.0,West,9.2,-,N/A,,Clear,270,2012-11-28 21:34:00
4:55 PM,34.0,19.0,54,30.23,10.0,West,6.9,-,N/A,,Clear,270,2012-11-28 21:55:00
5:14 PM,33.1,19.4,57,30.24,10.0,West,5.8,-,N/A,,Clear,270,2012-11-28 22:14:00
5:34 PM,32.5,19.4,58,30.25,10.0,West,6.9,-,N/A,,Clear,270,2012-11-28 22:34:00
5:55 PM,32.0,19.4,60,30.26,10.0,West,4.6,-,N/A,,Clear,270,2012-11-28 22:55:00
6:14 PM,31.6,19.6,61,30.26,10.0,West,4.6,-,N/A,,Clear,270,2012-11-28 23:14:00
6:34 PM,30.7,19.8,64,30.26,10.0,West,5.8,-,N/A,,Clear,260,2012-11-28 23:34:00
6:55 PM,30.4,19.9,65,30.27,10.0,West,4.6,-,N/A,,Clear,260,2012-11-28 23:55:00
7:14 PM,30.2,20.1,66,30.26,10.0,WSW,6.9,-,N/A,,Clear,250,2012-11-29 00:14:00
7:55 PM,29.3,19.8,68,30.26,10.0,WSW,3.5,-,N/A,,Clear,250,2012-11-29 00:55:00
8:14 PM,28.8,19.4,68,30.26,10.0,WSW,3.5,-,N/A,,Clear,240,2012-11-29 01:14:00
8:35 PM,28.4,19.4,69,30.26,10.0,Calm,Calm,-,N/A,,Clear,0,2012-11-29 01:35:00
8:54 PM,28.4,19.4,69,30.26,10.0,Calm,Calm,-,N/A,,Clear,0,2012-11-29 01:54:00
9:15 PM,27.0,19.0,72,30.25,10.0,Calm,Calm,-,N/A,,Clear,0,2012-11-29 02:15:00
9:35 PM,26.8,18.9,72,30.26,10.0,Calm,Calm,-,N/A,,Clear,0,2012-11-29 02:35:00
9:54 PM,27.1,19.2,72,30.26,10.0,Calm,Calm,-,N/A,,Clear,0,2012-11-29 02:54:00
10:15 PM,27.1,19.8,74,30.25,10.0,SW,3.5,-,N/A,,Clear,220,2012-11-29 03:15:00
10:35 PM,27.5,20.3,74,30.25,10.0,SSW,3.5,-,N/A,,Clear,210,2012-11-29 03:35:00
10:54 PM,27.3,20.8,77,30.24,10.0,Calm,Calm,-,N/A,,Clear,0,2012-11-29 03:54:00
11:15 PM,27.9,21.6,77,30.23,10.0,Calm,Calm,-,N/A,,Clear,0,2012-11-29 04:15:00
11:35 PM,27.5,21.9,80,30.23,10.0,Calm,Calm,-,N/A,,Clear,0,2012-11-29 04:35:00
11:54 PM,28.2,22.8,80,30.22,10.0,Calm,Calm,-,N/A,,Clear,0,2012-11-29 04:54:00